EN

Hourly Weather Amstelveen

Today, 16 January, Saturday

Time Temperature Precipitation Wind Pressure Humidity
00:00 -1°C° 0 mm 2 mps 772 mmHg 84%
01:00 -1°C° 0 mm 2 mps 772 mmHg 84%
02:00 +1°C° 0 mm 2 mps 771 mmHg 83%
03:00 +1°C° 0 mm 2 mps 771 mmHg 83%
04:00 0°C° 0 mm 3 mps 770 mmHg 84%
05:00 0°C° 0 mm 3 mps 770 mmHg 85%
06:00 0°C° 0 mm 3 mps 770 mmHg 85%
07:00 -1°C° 0 mm 4 mps 769 mmHg 82%
08:00 -1°C° 0 mm 4 mps 769 mmHg 80%
09:00 -1°C° 0 mm 5 mps 768 mmHg 77%
10:00 -1°C° 0 mm 5 mps 767 mmHg 72%
11:00 -2°C° 0 mm 6 mps 767 mmHg 68%
12:00 -1°C° 0 mm 6 mps 766 mmHg 66%
13:00 -2°C° 0.3 mm 6 mps 766 mmHg 73%
14:00 -2°C° 0.3 mm 6 mps 765 mmHg 81%
15:00 -3°C° 0.3 mm 6 mps 764 mmHg 88%
16:00 -3°C° 0.5 mm 6 mps 763 mmHg 90%
17:00 -3°C° 0.5 mm 6 mps 763 mmHg 92%
18:00 -3°C° 0.5 mm 6 mps 762 mmHg 95%
19:00 -2°C° 0.1 mm 5 mps 762 mmHg 95%
20:00 -2°C° 0.1 mm 5 mps 762 mmHg 95%
21:00 -1°C° 0.1 mm 4 mps 761 mmHg 96%
22:00 -1°C° 0.1 mm 4 mps 761 mmHg 96%
23:00 -1°C° 0.1 mm 4 mps 761 mmHg 97%

Tomorrow, 17 January, Sunday

Time Temperature Precipitation Wind Pressure Humidity
00:00 0°C° 0.1 mm 3 mps 761 mmHg 97%
01:00 +1°C° 0.4 mm 3 mps 761 mmHg 97%
02:00 0°C° 0.4 mm 4 mps 760 mmHg 97%
03:00 +1°C° 0.4 mm 4 mps 760 mmHg 97%
04:00 +1°C° 0.1 mm 4 mps 760 mmHg 96%
05:00 +3°C° 0.1 mm 4 mps 761 mmHg 94%
06:00 +3°C° 0.1 mm 4 mps 761 mmHg 92%
07:00 +3°C° 0 mm 4 mps 761 mmHg 92%
08:00 +3°C° 0 mm 4 mps 762 mmHg 91%
09:00 +3°C° 0 mm 4 mps 762 mmHg 90%
10:00 +4°C° 0 mm 4 mps 763 mmHg 87%
11:00 +5°C° 0 mm 4 mps 763 mmHg 84%
12:00 +5°C° 0 mm 4 mps 764 mmHg 80%
13:00 +5°C° 0 mm 4 mps 764 mmHg 81%
14:00 +5°C° 0 mm 4 mps 764 mmHg 83%
15:00 +4°C° 0 mm 4 mps 765 mmHg 84%
16:00 +4°C° 0 mm 4 mps 765 mmHg 86%
17:00 +3°C° 0 mm 4 mps 765 mmHg 87%
18:00 +3°C° 0 mm 4 mps 766 mmHg 89%
19:00 +3°C° 0 mm 4 mps 766 mmHg 89%
20:00 +3°C° 0 mm 4 mps 766 mmHg 89%
21:00 +3°C° 0 mm 4 mps 766 mmHg 88%
22:00 +1°C° 0 mm 4 mps 767 mmHg 89%
23:00 +2°C° 0 mm 3 mps 767 mmHg 90%

Day after tomorrow, 18 January, Monday

Time Temperature Precipitation Wind Pressure Humidity
00:00 +2°C° 0 mm 3 mps 767 mmHg 90%
01:00 +1°C° 0 mm 4 mps 767 mmHg 91%
02:00 +1°C° 0 mm 4 mps 766 mmHg 92%
03:00 +1°C° 0 mm 4 mps 766 mmHg 93%
04:00 +1°C° 0 mm 4 mps 766 mmHg 92%
05:00 +3°C° 0 mm 4 mps 766 mmHg 91%
06:00 +3°C° 0 mm 4 mps 766 mmHg 90%
07:00 +2°C° 0 mm 5 mps 766 mmHg 89%
08:00 +2°C° 0 mm 5 mps 765 mmHg 89%
09:00 +2°C° 0 mm 5 mps 765 mmHg 88%
10:00 +3°C° 0 mm 6 mps 765 mmHg 85%
11:00 +4°C° 0 mm 6 mps 765 mmHg 82%
12:00 +4°C° 0 mm 7 mps 765 mmHg 79%
13:00 +4°C° 0.1 mm 6 mps 764 mmHg 79%
14:00 +4°C° 0.1 mm 6 mps 764 mmHg 80%
15:00 +4°C° 0.1 mm 6 mps 763 mmHg 80%
16:00 +4°C° 0.1 mm 6 mps 763 mmHg 82%
17:00 +3°C° 0.1 mm 6 mps 763 mmHg 83%
18:00 +3°C° 0.1 mm 5 mps 763 mmHg 85%
19:00 +3°C° 0.1 mm 6 mps 762 mmHg 86%
20:00 +3°C° 0.1 mm 6 mps 762 mmHg 86%
21:00 +3°C° 0.1 mm 6 mps 761 mmHg 87%
22:00 +3°C° 0.4 mm 7 mps 760 mmHg 88%
23:00 +3°C° 0.4 mm 7 mps 759 mmHg 89%

19 January, Tuesday

Time Temperature Precipitation Wind Pressure Humidity
00:00 +1°C° 0.4 mm 8 mps 759 mmHg 90%
01:00 +2°C° 1.3 mm 8 mps 757 mmHg 90%
02:00 +2°C° 1.3 mm 8 mps 756 mmHg 90%
03:00 +2°C° 1.3 mm 9 mps 754 mmHg 90%
04:00 +3°C° 1.9 mm 9 mps 753 mmHg 91%
05:00 +5°C° 1.9 mm 10 mps 752 mmHg 92%
06:00 +6°C° 1.9 mm 10 mps 751 mmHg 92%
07:00 +7°C° 1.6 mm 11 mps 751 mmHg 91%
08:00 +7°C° 1.6 mm 12 mps 750 mmHg 89%
09:00 +8°C° 1.6 mm 12 mps 750 mmHg 87%
10:00 +8°C° 0.9 mm 12 mps 750 mmHg 85%
11:00 +8°C° 0.9 mm 12 mps 750 mmHg 83%
12:00 +8°C° 0.9 mm 12 mps 750 mmHg 82%
13:00 +8°C° 0.7 mm 12 mps 750 mmHg 83%
14:00 +8°C° 0.7 mm 12 mps 750 mmHg 84%
15:00 +7°C° 0.7 mm 12 mps 749 mmHg 85%
16:00 +8°C° 0.2 mm 11 mps 749 mmHg 83%
17:00 +8°C° 0.2 mm 11 mps 749 mmHg 81%
18:00 +8°C° 0.2 mm 11 mps 749 mmHg 79%
19:00 +7°C° 0.1 mm 11 mps 749 mmHg 80%
20:00 +7°C° 0.1 mm 11 mps 748 mmHg 80%
21:00 +7°C° 0.1 mm 11 mps 748 mmHg 80%
22:00 +7°C° 0.3 mm 11 mps 748 mmHg 80%
23:00 +7°C° 0.3 mm 11 mps 747 mmHg 79%

20 January, Wednesday

Time Temperature Precipitation Wind Pressure Humidity
00:00 +7°C° 0.3 mm 11 mps 747 mmHg 79%
01:00 +7°C° 0.2 mm 11 mps 747 mmHg 80%
02:00 +7°C° 0.2 mm 11 mps 746 mmHg 81%
03:00 +7°C° 0.2 mm 11 mps 746 mmHg 82%
04:00 +7°C° 0.2 mm 11 mps 746 mmHg 82%
05:00 +7°C° 0.2 mm 10 mps 745 mmHg 82%
06:00 +7°C° 0.2 mm 10 mps 745 mmHg 82%
07:00 +7°C° 0.2 mm 9 mps 745 mmHg 79%
08:00 +6°C° 0.2 mm 9 mps 745 mmHg 76%
09:00 +6°C° 0.2 mm 9 mps 745 mmHg 73%
10:00 +6°C° 0 mm 9 mps 744 mmHg 71%
11:00 +6°C° 0 mm 9 mps 744 mmHg 69%
12:00 +6°C° 0 mm 9 mps 744 mmHg 67%
13:00 +7°C° 0 mm 9 mps 743 mmHg 66%
14:00 +7°C° 0 mm 8 mps 743 mmHg 65%
15:00 +7°C° 0 mm 8 mps 742 mmHg 64%
16:00 +7°C° 0 mm 8 mps 742 mmHg 65%
17:00 +7°C° 0 mm 9 mps 741 mmHg 67%
18:00 +7°C° 0 mm 9 mps 741 mmHg 68%
19:00 +7°C° 0 mm 9 mps 741 mmHg 68%
20:00 +8°C° 0 mm 9 mps 740 mmHg 69%
21:00 +8°C° 0 mm 9 mps 740 mmHg 69%
22:00 +8°C° 0 mm 9 mps 739 mmHg 70%
23:00 +8°C° 0 mm 9 mps 738 mmHg 71%

21 January, Thursday

Time Temperature Precipitation Wind Pressure Humidity
00:00 +8°C° 0 mm 9 mps 737 mmHg 72%
01:00 +8°C° 0.1 mm 10 mps 736 mmHg 73%
02:00 +8°C° 0.1 mm 10 mps 736 mmHg 74%
03:00 +8°C° 0.1 mm 11 mps 735 mmHg 75%
04:00 +7°C° 0.2 mm 11 mps 736 mmHg 72%
05:00 +6°C° 0.2 mm 11 mps 736 mmHg 68%
06:00 +3°C° 0.2 mm 12 mps 737 mmHg 65%
07:00 +3°C° 0 mm 11 mps 738 mmHg 65%
08:00 +3°C° 0 mm 11 mps 738 mmHg 64%
09:00 +3°C° 0 mm 11 mps 739 mmHg 64%
10:00 +3°C° 0.2 mm 11 mps 740 mmHg 66%
11:00 +4°C° 0.2 mm 12 mps 740 mmHg 68%
12:00 +4°C° 0.2 mm 12 mps 740 mmHg 71%
13:00 +4°C° 0.7 mm 12 mps 740 mmHg 71%
14:00 +4°C° 0.7 mm 11 mps 740 mmHg 72%
15:00 +4°C° 0.7 mm 11 mps 739 mmHg 73%
16:00 +3°C° 0.2 mm 10 mps 740 mmHg 73%
17:00 +3°C° 0.2 mm 9 mps 740 mmHg 72%
18:00 +2°C° 0.2 mm 8 mps 741 mmHg 72%
19:00 +2°C° 0.1 mm 8 mps 741 mmHg 72%
20:00 +2°C° 0.1 mm 8 mps 741 mmHg 72%
21:00 +2°C° 0.1 mm 8 mps 742 mmHg 71%
22:00 +3°C° 0 mm 7 mps 742 mmHg 74%
23:00 +3°C° 0 mm 7 mps 742 mmHg 76%
Show more

We Need Your Consent

Meteoprog and our Service Providers may store and access personal data such as cookies, device identifiers or other similar technologies on your device and process such data to personalise content and ads, as well as provide social media features and to analyse the traffic.

  • Store and/or access information on your device

    Cookies, device identifiers or other information can be stored or accessed on your device for the purposes indicated above.

  • Personalised ads and content, ad and content measurement, audience insights, and products development

    Ads and content can be personalised based on a profile. More data can be added to better personalise ads and content. Ad and content performance can be measured. Insights about the audience who saw the ads and content can be derived. Such data can be used to develop or improve user’s experience, systems and software.

By clicking ‘I Agree’ you will allow the use of indicated cookies, device identifiers, web beacons or other similar technologies. Your settings can be changed in the browser on your device.

For certain purposes, legitimate interests may be relied on, rather than consent. You can read more about this in our Privacy and Cookie Policy.